Time,TemperatureF,DewpointF,PressureIn,WindDirection,WindDirectionDegrees,WindSpeedMPH,WindSpeedGustMPH,Humidity,HourlyPrecipIn,Conditions,Clouds,dailyrainin,SoftwareType,DateUTC
2013-02-08 00:01:00,24.9,13.0,30.41,ESE,118,0.0,7.0,62,0.00,,,0.00,weatherlink.com 1.10,2013-02-08 05:01:00,
2013-02-08 00:17:00,25.0,14.0,30.40,North,360,1.0,7.0,63,0.00,,,0.00,weatherlink.com 1.10,2013-02-08 05:17:00,
2013-02-08 00:32:00,25.1,14.0,30.39,ENE,68,0.0,7.0,63,0.00,,,0.00,weatherlink.com 1.10,2013-02-08 05:32:00,
2013-02-08 00:47:00,25.2,15.0,30.39,East,101,1.0,7.0,64,0.00,,,0.00,weatherlink.com 1.10,2013-02-08 05:47:00,
2013-02-08 01:02:00,25.3,15.0,30.39,East,89,1.0,5.0,65,0.00,,,0.00,weatherlink.com 1.10,2013-02-08 06:02:00,
2013-02-08 01:17:00,25.5,15.0,30.38,ESE,103,2.0,8.0,65,0.00,,,0.00,weatherlink.com 1.10,2013-02-08 06:17:00,
2013-02-08 01:34:00,25.7,16.0,30.38,ENE,69,1.0,6.0,66,0.00,,,0.00,weatherlink.com 1.10,2013-02-08 06:34:00,
2013-02-08 01:49:00,25.7,16.0,30.37,SE,142,3.0,9.0,67,0.00,,,0.00,weatherlink.com 1.10,2013-02-08 06:49:00,
2013-02-08 02:04:00,25.7,16.0,30.37,ESE,118,0.0,11.0,67,0.00,,,0.00,weatherlink.com 1.10,2013-02-08 07:04:00,
2013-02-08 02:20:00,25.7,16.0,30.36,SE,144,1.0,8.0,68,0.00,,,0.00,weatherlink.com 1.10,2013-02-08 07:20:00,
2013-02-08 02:35:00,25.7,16.0,30.36,SE,125,3.0,5.0,68,0.00,,,0.00,weatherlink.com 1.10,2013-02-08 07:35:00,
2013-02-08 02:50:00,25.7,16.0,30.35,East,98,1.0,9.0,67,0.00,,,0.00,weatherlink.com 1.10,2013-02-08 07:50:00,
2013-02-08 03:06:00,25.6,16.0,30.34,South,177,2.0,8.0,66,0.00,,,0.00,weatherlink.com 1.10,2013-02-08 08:06:00,
2013-02-08 03:20:00,25.6,15.0,30.33,ESE,116,3.0,7.0,65,0.00,,,0.00,weatherlink.com 1.10,2013-02-08 08:20:00,
2013-02-08 03:35:00,25.5,15.0,30.32,ESE,109,3.0,8.0,65,0.00,,,0.00,weatherlink.com 1.10,2013-02-08 08:35:00,
2013-02-08 03:52:00,25.5,15.0,30.31,East,92,1.0,9.0,65,0.00,,,0.00,weatherlink.com 1.10,2013-02-08 08:52:00,
2013-02-08 04:07:00,25.4,15.0,30.31,ESE,103,2.0,13.0,65,0.00,,,0.00,weatherlink.com 1.10,2013-02-08 09:07:00,
2013-02-08 04:22:00,25.4,16.0,30.30,East,86,0.0,6.0,67,0.00,,,0.00,weatherlink.com 1.10,2013-02-08 09:22:00,
2013-02-08 04:37:00,25.3,16.0,30.30,ESE,115,4.0,8.0,68,0.00,,,0.00,weatherlink.com 1.10,2013-02-08 09:37:00,
2013-02-08 04:53:00,25.3,16.0,30.29,ENE,73,7.0,10.0,69,0.00,,,0.00,weatherlink.com 1.10,2013-02-08 09:53:00,
2013-02-08 05:09:00,25.4,17.0,30.29,NE,36,0.0,7.0,70,0.00,,,0.00,weatherlink.com 1.10,2013-02-08 10:09:00,
2013-02-08 05:23:00,25.4,17.0,30.28,ESE,119,2.0,9.0,71,0.00,,,0.00,weatherlink.com 1.10,2013-02-08 10:23:00,
2013-02-08 05:39:00,25.6,18.0,30.27,NE,39,4.0,10.0,72,0.00,,,0.00,weatherlink.com 1.10,2013-02-08 10:39:00,
2013-02-08 05:54:00,25.6,18.0,30.26,East,101,5.0,9.0,73,0.00,,,0.00,weatherlink.com 1.10,2013-02-08 10:54:00,
2013-02-08 06:10:00,25.8,19.0,30.26,NNW,327,0.0,5.0,74,0.00,,,0.00,weatherlink.com 1.10,2013-02-08 11:10:00,
2013-02-08 06:25:00,25.9,19.0,30.25,NNE,17,6.0,8.0,75,0.00,,,0.00,weatherlink.com 1.10,2013-02-08 11:25:00,
2013-02-08 06:40:00,26.1,20.0,30.24,SE,141,0.0,10.0,76,0.00,,,0.00,weatherlink.com 1.10,2013-02-08 11:40:00,
2013-02-08 06:56:00,26.2,20.0,30.24,ESE,109,3.0,11.0,77,0.00,,,0.00,weatherlink.com 1.10,2013-02-08 11:56:00,
2013-02-08 07:12:00,26.3,20.0,30.23,ENE,62,0.0,11.0,78,0.00,,,0.00,weatherlink.com 1.10,2013-02-08 12:12:00,
2013-02-08 07:27:00,26.3,21.0,30.22,ENE,70,8.0,8.0,80,0.00,,,0.00,weatherlink.com 1.10,2013-02-08 12:27:00,
2013-02-08 07:42:00,26.5,21.0,30.22,NNW,348,1.0,11.0,81,0.00,,,0.00,weatherlink.com 1.10,2013-02-08 12:42:00,
2013-02-08 07:57:00,26.5,22.0,30.21,NNW,337,0.0,13.0,82,0.00,,,0.00,weatherlink.com 1.10,2013-02-08 12:57:00,
2013-02-08 08:12:00,26.6,22.0,30.21,ESE,110,3.0,9.0,82,0.00,,,0.00,weatherlink.com 1.10,2013-02-08 13:12:00,
2013-02-08 08:28:00,26.7,22.0,30.20,NE,51,2.0,8.0,83,0.00,,,0.00,weatherlink.com 1.10,2013-02-08 13:28:00,
2013-02-08 08:43:00,26.7,23.0,30.20,NNE,21,5.0,10.0,84,0.00,,,0.00,weatherlink.com 1.10,2013-02-08 13:43:00,
2013-02-08 08:59:00,26.8,23.0,30.19,NE,34,1.0,13.0,84,0.00,,,0.00,weatherlink.com 1.10,2013-02-08 13:59:00,
2013-02-08 09:14:00,27.0,23.0,30.18,NNW,339,2.0,11.0,85,0.00,,,0.00,weatherlink.com 1.10,2013-02-08 14:14:00,
2013-02-08 09:28:00,27.1,23.0,30.17,East,86,0.0,9.0,85,0.00,,,0.00,weatherlink.com 1.10,2013-02-08 14:28:00,
2013-02-08 09:45:00,27.2,23.0,30.16,North,9,0.0,9.0,85,0.00,,,0.00,weatherlink.com 1.10,2013-02-08 14:45:00,
2013-02-08 10:00:00,27.6,24.0,30.15,ENE,66,4.0,10.0,85,0.00,,,0.00,weatherlink.com 1.10,2013-02-08 15:00:00,
2013-02-08 10:15:00,27.8,24.0,30.14,NE,55,1.0,10.0,86,0.00,,,0.00,weatherlink.com 1.10,2013-02-08 15:15:00,
2013-02-08 10:30:00,27.8,24.0,30.13,NE,46,5.0,10.0,86,0.00,,,0.00,weatherlink.com 1.10,2013-02-08 15:30:00,
2013-02-08 10:45:00,28.0,24.0,30.12,East,96,7.0,14.0,86,0.00,,,0.00,weatherlink.com 1.10,2013-02-08 15:45:00,
2013-02-08 11:02:00,28.0,24.0,30.10,ESE,123,4.0,14.0,86,0.00,,,0.00,weatherlink.com 1.10,2013-02-08 16:02:00,
2013-02-08 11:17:00,28.1,25.0,30.09,ENE,73,5.0,10.0,87,0.00,,,0.00,weatherlink.com 1.10,2013-02-08 16:17:00,
2013-02-08 11:31:00,28.1,25.0,30.07,NNE,18,1.0,9.0,87,0.00,,,0.00,weatherlink.com 1.10,2013-02-08 16:31:00,
2013-02-08 11:47:00,28.0,25.0,30.05,NNE,25,1.0,16.0,87,0.00,,,0.00,weatherlink.com 1.10,2013-02-08 16:47:00,
2013-02-08 12:04:00,28.0,25.0,30.03,North,5,4.0,10.0,88,0.00,,,0.00,weatherlink.com 1.10,2013-02-08 17:04:00,
2013-02-08 12:19:00,28.1,25.0,30.02,ENE,72,5.0,12.0,88,0.00,,,0.00,weatherlink.com 1.10,2013-02-08 17:19:00,
2013-02-08 12:34:00,28.1,25.0,30.00,NE,36,2.0,17.0,88,0.00,,,0.00,weatherlink.com 1.10,2013-02-08 17:34:00,
2013-02-08 12:48:00,28.2,25.0,29.99,NNE,24,4.0,12.0,88,0.00,,,0.00,weatherlink.com 1.10,2013-02-08 17:48:00,
2013-02-08 13:05:00,28.2,25.0,29.98,NNW,331,6.0,14.0,88,0.00,,,0.00,weatherlink.com 1.10,2013-02-08 18:05:00,
2013-02-08 13:20:00,28.3,25.0,29.95,NNE,14,1.0,13.0,88,0.00,,,0.00,weatherlink.com 1.10,2013-02-08 18:20:00,
2013-02-08 13:35:00,28.3,26.0,29.94,East,92,3.0,17.0,89,0.00,,,0.00,weatherlink.com 1.10,2013-02-08 18:35:00,
2013-02-08 13:50:00,28.3,26.0,29.93,NNE,19,5.0,18.0,89,0.00,,,0.00,weatherlink.com 1.10,2013-02-08 18:50:00,
2013-02-08 14:06:00,28.4,26.0,29.92,NE,38,4.0,17.0,89,0.00,,,0.00,weatherlink.com 1.10,2013-02-08 19:06:00,
2013-02-08 14:21:00,28.5,26.0,29.90,ENE,72,4.0,14.0,89,0.00,,,0.00,weatherlink.com 1.10,2013-02-08 19:21:00,
2013-02-08 14:37:00,28.5,26.0,29.88,West,271,1.0,14.0,89,0.00,,,0.00,weatherlink.com 1.10,2013-02-08 19:37:00,
2013-02-08 14:52:00,28.6,26.0,29.87,ENE,57,0.0,15.0,90,0.00,,,0.00,weatherlink.com 1.10,2013-02-08 19:52:00,
2013-02-08 15:07:00,28.7,26.0,29.86,North,11,7.0,18.0,90,0.00,,,0.00,weatherlink.com 1.10,2013-02-08 20:07:00,
2013-02-08 15:22:00,28.8,26.0,29.84,ENE,77,5.0,12.0,90,0.00,,,0.00,weatherlink.com 1.10,2013-02-08 20:22:00,
2013-02-08 15:37:00,28.8,26.0,29.83,NE,53,7.0,17.0,90,0.00,,,0.00,weatherlink.com 1.10,2013-02-08 20:37:00,
2013-02-08 15:53:00,28.7,26.0,29.82,ENE,57,9.0,11.0,90,0.00,,,0.00,weatherlink.com 1.10,2013-02-08 20:53:00,
2013-02-08 16:09:00,28.5,26.0,29.81,NNE,19,3.0,14.0,90,0.00,,,0.00,weatherlink.com 1.10,2013-02-08 21:09:00,
2013-02-08 16:24:00,28.4,26.0,29.80,North,355,0.0,14.0,90,0.00,,,0.00,weatherlink.com 1.10,2013-02-08 21:24:00,
2013-02-08 16:39:00,28.2,26.0,29.79,NNW,336,0.0,15.0,90,0.00,,,0.00,weatherlink.com 1.10,2013-02-08 21:39:00,
2013-02-08 16:55:00,28.0,26.0,29.79,NE,50,13.0,19.0,90,0.00,,,0.00,weatherlink.com 1.10,2013-02-08 21:55:00,
2013-02-08 17:10:00,27.8,25.0,29.78,North,360,6.0,16.0,90,0.00,,,0.00,weatherlink.com 1.10,2013-02-08 22:10:00,
2013-02-08 17:25:00,27.6,25.0,29.78,NNE,30,6.0,19.0,90,0.00,,,0.00,weatherlink.com 1.10,2013-02-08 22:25:00,
2013-02-08 17:40:00,27.4,25.0,29.77,ENE,59,10.0,21.0,90,0.00,,,0.00,weatherlink.com 1.10,2013-02-08 22:40:00,
2013-02-08 17:57:00,27.2,25.0,29.76,East,96,2.0,23.0,90,0.00,,,0.00,weatherlink.com 1.10,2013-02-08 22:57:00,
2013-02-08 18:12:00,26.9,24.0,29.76,NNW,347,3.0,18.0,90,0.00,,,0.00,weatherlink.com 1.10,2013-02-08 23:12:00,
2013-02-08 18:27:00,26.6,24.0,29.75,ESE,109,5.0,15.0,90,0.00,,,0.00,weatherlink.com 1.10,2013-02-08 23:27:00,
2013-02-08 18:42:00,26.5,24.0,29.73,ESE,111,7.0,16.0,90,0.00,,,0.00,weatherlink.com 1.10,2013-02-08 23:42:00,
2013-02-08 18:57:00,26.3,24.0,29.74,North,5,4.0,15.0,90,0.00,,,0.00,weatherlink.com 1.10,2013-02-08 23:57:00,
2013-02-08 19:12:00,26.2,24.0,29.73,East,98,5.0,13.0,90,0.00,,,0.00,weatherlink.com 1.10,2013-02-09 00:12:00,
2013-02-08 19:28:00,26.0,24.0,29.72,NNE,19,6.0,13.0,90,0.00,,,0.00,weatherlink.com 1.10,2013-02-09 00:28:00,
2013-02-08 19:43:00,26.0,24.0,29.71,NNW,329,5.0,15.0,90,0.00,,,0.00,weatherlink.com 1.10,2013-02-09 00:43:00,
2013-02-08 19:59:00,26.0,24.0,29.70,North,360,3.0,20.0,90,0.00,,,0.00,weatherlink.com 1.10,2013-02-09 00:59:00,
2013-02-08 20:13:00,26.1,24.0,29.70,North,5,4.0,19.0,90,0.00,,,0.00,weatherlink.com 1.10,2013-02-09 01:13:00,
2013-02-08 20:30:00,26.2,24.0,29.69,NE,34,6.0,15.0,90,0.00,,,0.00,weatherlink.com 1.10,2013-02-09 01:30:00,
2013-02-08 20:45:00,26.3,24.0,29.68,WNW,291,12.0,22.0,90,0.00,,,0.00,weatherlink.com 1.10,2013-02-09 01:45:00,
2013-02-08 21:00:00,26.4,24.0,29.68,NNE,19,5.0,24.0,90,0.00,,,0.00,weatherlink.com 1.10,2013-02-09 02:00:00,
2013-02-08 21:15:00,26.3,24.0,29.68,NW,326,9.0,20.0,90,0.00,,,0.00,weatherlink.com 1.10,2013-02-09 02:15:00,
2013-02-08 21:30:00,26.1,24.0,29.68,WNW,287,3.0,21.0,90,0.00,,,0.00,weatherlink.com 1.10,2013-02-09 02:30:00,
2013-02-08 21:47:00,25.7,23.0,29.68,NNE,15,12.0,14.0,90,0.00,,,0.00,weatherlink.com 1.10,2013-02-09 02:47:00,
2013-02-08 22:01:00,25.3,23.0,29.68,NNW,346,2.0,20.0,90,0.00,,,0.00,weatherlink.com 1.10,2013-02-09 03:01:00,
2013-02-08 22:17:00,24.8,22.0,29.69,NNW,348,0.0,15.0,89,0.00,,,0.00,weatherlink.com 1.10,2013-02-09 03:17:00,
2013-02-08 22:32:00,24.3,22.0,29.71,NNW,327,1.0,13.0,89,0.00,,,0.00,weatherlink.com 1.10,2013-02-09 03:32:00,
2013-02-08 22:47:00,23.9,21.0,29.73,WNW,298,2.0,15.0,89,0.00,,,0.00,weatherlink.com 1.10,2013-02-09 03:47:00,
2013-02-08 23:04:00,23.7,21.0,29.73,NW,310,5.0,12.0,89,0.00,,,0.00,weatherlink.com 1.10,2013-02-09 04:04:00,
2013-02-08 23:18:00,23.6,21.0,29.74,North,349,5.0,12.0,89,0.00,,,0.00,weatherlink.com 1.10,2013-02-09 04:18:00,
2013-02-08 23:34:00,23.5,21.0,29.76,NW,311,6.0,13.0,89,0.00,,,0.00,weatherlink.com 1.10,2013-02-09 04:34:00,
2013-02-08 23:49:00,23.1,20.0,29.77,NNW,327,3.0,13.0,89,0.00,,,0.00,weatherlink.com 1.10,2013-02-09 04:49:00,